Miscellaneous Local Product
Issued by NWS North Platte, NE

Home | Current Version | Previous Version | Text Only | Print | Product List | Glossary On
Versions: 1 2 3 4 5 6 7 8 9 10 11 12 13 14 15 16 17 18 19 20 21 22 23 24 25 26 27 28 29 30 31 32 33 34 35 36 37 38 39 40 41 42 43 44 45 46 47 48 49 50
000
AXUS43 KLBF 050410
MISLBF


WESTERN AND NORTH CENTRAL NEBRASKA HOURLY WEATHER ROUNDUP
NATIONAL WEATHER SERVICE NORTH PLATTE NE
1000 PM CST WED MAR 04 2015

***STATIONS NOT REPORTING VARIABLES SUCH AS SKY/WEATHER OR
PRESSURE ARE PROVIDED BY THE NEBRASKA DEPARTMENT OF
ROADS...RAWS...AND APRS NETWORKS...AND ARE NOT UNDER
NATIONAL WEATHER SERVICE QUALITY CONTROL***

...OBSERVATIONS IN AND NEAR THE EASTERN PANHANDLE OF NEBRASKA...

CITY           SKY/WX    TMP DP  RH WIND       PRES   REMARKS
PINE RIDGE     CLEAR     -2  -7  79 NE3       30.26R
CHADRON        PTCLDY     2  -2  83 W3        30.26R
ALLIANCE       CLEAR      7   0  73 SW7       30.22R WCI  -5
SIDNEY         CLEAR      6   0  76 SW9       30.23R WCI  -8
WHITECLAY        N/A     30  23  74 E5          N/A  WCI  25
CRESCENT LAKE    N/A     14   0  54 NW6         N/A  WCI   5
LISCO            N/A     17   2  52 CALM        N/A
BIG SPRINGS      N/A     10   3  72 CALM        N/A
LEWELLEN         N/A      8  -7  50 S6          N/A  WCI  -2
$$

...OBSERVATIONS IN NORTH CENTRAL NEBRASKA...

CITY           SKY/WX    TMP DP  RH WIND       PRES   REMARKS
VALENTINE      CLEAR      3  -2  79 CALM      30.33R
THEDFORD       CLEAR      9   2  73 CALM      30.33R
AINSWORTH      CLEAR      7   0  71 CALM      30.33R
O`NEILL        CLEAR      7  -2  67 CALM      30.39R
ORD            CLEAR      9  -3  58 CALM      30.39R
BROKEN BOW     CLEAR     10  -1  61 N5        30.35R WCI   2
BROWNLEE         N/A      4  -3  71 CALM        N/A
SPRINGVIEW       N/A      1  -4  80 CALM        N/A
BREWSTER         N/A     11   3  71 CALM        N/A
ROSE             N/A     14   9  81 CALM        N/A
NEWPORT          N/A     11   7  85 CALM        N/A
SARGENT          N/A     11   2  66 CALM        N/A
COMSTOCK         N/A     12  -1  57 E5          N/A  WCI   4
CHAMBERS         N/A      6 -13  40 CALM        N/A
EWING            N/A      4  -3  71 CALM        N/A
$$

...OBSERVATIONS IN SOUTHWEST NEBRASKA AND FAR NORTHEAST COLORADO...

CITY           SKY/WX    TMP DP  RH WIND       PRES   REMARKS
WRAY           CLOUDY    20  12  71 SW3       30.30R
IMPERIAL         N/A     18   6  59 SW3       30.30R
OGALLALA       PTCLDY    11   4  72 CALM      30.29R
NORTH PLATTE   CLEAR     11  -1  58 E5        30.33R WCI   3
MCCOOK         CLEAR     19   6  57 W3        30.33R
LEXINGTON      CLEAR     10   4  75 CALM      30.36R
PAXTON           N/A     12  -1  57 CALM        N/A
BRADY            N/A     12  -1  57 CALM        N/A
GOTHENBURG       N/A     13  -2  50 N3          N/A
CALLAWAY         N/A     11   0  60 NE3         N/A
$$

...NORTH PLATTE AREA...

CITY           SKY/WX    TMP DP  RH WIND       PRES   REMARKS
AIRPORT        CLEAR     11  -1  58 E5        30.33R WCI   3
DOWNTOWN         N/A     15   0  50 CALM        N/A
$$

...SOME WEATHER OBSERVATIONS FROM AROUND THE REGION...

CITY           SKY/WX    TMP DP  RH WIND       PRES   REMARKS
DENVER         PTCLDY    12   4  70 S16       30.20R WCI  -5
LARAMIE        CLEAR      0 -10  63 S3        30.07R
CHEYENNE       CLEAR      6  -5  60 SW8       30.12R WCI  -7
SCOTTSBLUFF    CLEAR     13   4  67 CALM      30.23R
RAPID CITY     CLEAR      4  -4  69 CALM      30.24R
PIERRE         PTCLDY    -2 -11  65 E3        30.38R
WINNER         FAIR       4  -7  60 S3        30.38R
SIOUX FALLS    CLEAR     -3  -9  75 CALM      30.44R
OMAHA          CLEAR     12   0  58 N9        30.46R WCI   0
GRAND ISLAND   CLEAR      8  -1  66 N7        30.41R WCI  -3
KANSAS CITY    MOCLDY    23   5  46 N14       30.40R WCI  11
WICHITA        PTCLDY    25   9  50 N3        30.41R
HAYS           CLEAR     18   0  45 S5        30.37R WCI  11
LIBERAL        PTCLDY    18  10  73 NW3       30.38R
GOODLAND       CLEAR     16   8  71 SW7       30.30R WCI   6
$$



USA.gov is the U.S. government's official web portal to all federal, state and local government web resources and services.